Погода Котельниково

Погода Котельниково : погода сейчас, прогноз погоды и архив. Всё, что Вы хотите узнать о погоде Котельниково!

Поиск расширенной информации на нашем сайте:

Другие новости

Новости СМИ2

Главная страница сайта

Новости сайта

02.10.2013

Напоминаем, что на нашем новом сайте вы можете получить высокодетализированные прогнозы погоды по пунктам России, СНГ и мира (включающие важные для авиации метеовеличины, такие как направление и скорость ветра, видимость, явления погоды, количество и форма облачности, нижняя и верхняя граница облачности), а также ознакомиться с разнообразными материалами по авиационной метеорологии и подборкой полезных ссылок на эту тему.

Сайт Метеоцентр.Азия посвящён разработке технологий оптимизации авиаметеорологического обслуживания, включая проектирование и перспективное создание нескольких автоматизированных авиаметеорологических систем:
- система выпуска высокодетальных прогностических карт явлений погоды для нижнего воздушного пространства по России и ближнему зарубежью;
- система верификации прогнозов TAF (выпускаемых синоптиками официальных АМСГ РФ и ближнего зарубежья) и AUTOTAF (выпускаемых сайтом Метеоцентр.Азия) - выявление ошибок, онлайн-сопоставление с фактической погодой METAR, автоматическое внесение коррективов в прогнозы при резком отклонении фактической погоды от прогноза, подсчёт оправдываемости прогнозов по элементам и в целом;
- система обработки, анализа и отображения авиаметеорологической информации для применения провайдерами метеорологической информации.


Погода Котельниково - сегодня

Время (UTC), дата Ветер
(°,м/с) 
Видим.   Явления Облачность Т
(°С)
Тd
(°С)
f(%) Тe
(°С)
Pmin
(гПа)
dP
(гПа)
Po
(мм)
O2
(г/м3)
Тmin Tmax R s Состояние
почвы
09 25.06.17 070 (В) 10 км    1/1 600 м 
[Cu hum]
+22.7 +7.8 38 +23  1013.9  0.8  756  280           
12 25.06.17 210 (ЮЗ) 10 км    3/3 600 м 
[Cu hum]
+24.4 +6.5 32 +24  1014  0.1  756  279           
15 25.06.17 280 (З) 10 км    3/3 600 м 
[Cu hum]
+24.7 +4.9 28 +25  1014.7  0.7  757  279    +25.6  0.3     
18 25.06.17 200 (Ю) 10 км    6/6 600 м 
[Sc diur, vesp]
+20.2 +11.1 56 +23  1015.4  0.6  757  282           
21 25.06.17 210 (ЮЗ) 10 км    5/5 600 м 
[Sc diur, vesp]
+19.4 +11.8 61 +23  1016.2  0.8  758  283           
00 26.06.17 200 (Ю) 10 км    5/5 600 м 
[Sc diur, vesp]
+17.4 +12 71 +22  1016  -0.3  758  285           
03 26.06.17 200 (Ю) 10 км    ясно 
+18.7 +12 65 +23  1016.2  0.3  758  284  +16.7        влажная 
06 26.06.17 240 (ЮЗ) 10 км    4/0 средняя 
[Ac trans]
+25.1 +13.5 49 +31  1016.4  0.3  758  277           
09 26.06.17 270 (З) 10 км    4/4 600 м 
[Cu hum]
+27.5 +13.1 41 +33  1015.7  -0.6  758  275           
12 26.06.17 250 (З) 10 км    6/6 600 м 
[Cu med, cong]
+30.1 +14 37 +37  1014.9  -0.6  757  272           
15 26.06.17 250 (З) 10 км    4/4 600 м 
[Cu med, cong]
+29.3 +12.4 35 +34  1014.3  -0.6  757  273    +30.1       
18 26.06.17 110 (В) 10 км    ясно 
+23.9 +15.6 60 +33  1014.5  -0.1  757  277           
21 26.06.17 100 (В) 10 км    ясно 
+19.4 +15 76 +29  1014.4  -0.2  757  281           
00 27.06.17 160 (Ю) 10 км    ясно 
+18 +11.7 67 +22  1014.8  0.4  757  284           
03 27.06.17 170 (Ю) 10 км    ясно 
+19.5 +12.3 63 +25  1015  0.2  757  282  +16.3    299    замёрзшая 
06 27.06.17 180 (Ю) 10 км    ясно 
+26.5 +10.9 38 +29  1014.6  -0.3  757  276           
09 27.06.17 130 (ЮВ) 10 км    3/0 средняя 
[Ac trans]
+31.3 +4.4 18 +31  1013.5  -1  756  273           
12 27.06.17 170 (Ю) 10 км    3/0 средняя 
[Ac trans]
+31.6 +8 23 +32  1012.1  -1.4  755  271           
15 27.06.17 150 (ЮВ) 10 км    3/0 средняя 
[Ac trans]
+31 +8.6 25 +31  1011.1  -1  754  272    +31.7       
18 27.06.17 тихо ()   10 км    3/0 средняя 
[Ac trans]
+22.6 +17.5 73 +36  1011.8  0.6  755  277           
21 27.06.17 тихо ()   10 км    3/0 средняя 
[Ac trans]
+19.1 +14.3 74 +26  1011.7  -0.2  755  281           
00 28.06.17 080 (В) 10 км    ясно 
+17.8 +11.3 66 +22  1011.4  -0.2  754  283           
03 28.06.17 090 (В) 10 км    3/0 средняя 
[Ac trans]
+20.3 +13.4 65 +26  1012.2  0.9  755  281  +17.3        сухая 
06 28.06.17 170 (Ю) 10 км    ясно 
+29.3 +15 42 +38  1011.6  -0.5  755  272           
09 28.06.17 140 (ЮВ) 10 км    3/3 600 м 
[Cu med, cong]
+32.9 +10.2 25 +34  1011.2  -0.4  754  270           
Время (UTC), дата Ветер
(°,м/с) 
Видим.   Явления Облачность Т
(°С)
Тd
(°С)
f(%) Тe
(°С)
Pmin
(гПа)
dP
(гПа)
Po
(мм)
O2
(г/м3)
Тmin Tmax R s Состояние
почвы

Для получения пояснительной информации подведите курсор к названию столбца.

ПОГОДА Котельниково - архив

Всё, что Вы хотите узнать о погоде Котельниково - удобно и подробно!

Выберите нужную дату (начиная с 1 января 2015* года) и нажмите кнопку "Найти".
Будут отображены архивные сводки погоды по пункту Котельниково, начиная с указанной даты.


Отображать данные в формате CSV (для использования в таблицах Excel)


Внимание! Наш архив погоды предназначен исключительно для личного некоммерческого использования в познавательных целях. Если Вам необходимы официальные справки о состоянии погоды (для производственных, юридических, коммерческих и т.п. целей), обращайтесь в органы Росгидромета.

*Примечание: данная дата относится к архиву по метеостанциям СССР (Россия, СНГ, Балтия).
Архив по метеостанциям Зарубежной Европы и Азии (кроме Китая) хранится 10 дней, по другим регионам земного шара (Китай, Африка, Америка, Австралия, Океания) - 1 день.

Котельниково - район местоположения метеостанции


Название, широта, долгота, высота метеостанции:
Котельниково 47.6°ш. 43.2°д. 49 м над ур. моря [Российская Федерация]

Дополнительная информация

В oтличие oт бoльшинства пoгoдных сайтoв мы публикуем пoдрoбную метеoинфoрмацию в детальнoм прoфессиoнальнoм фoрмате.

Характеристики температуры и влажнoсти вoздуха измеряются на высoте 2 м в тени вдали oт зданий и деревьев.
Скoрoсть ветра измеряется на высoте 10 м (на урoвне рoста челoвека скoрoсть ветра ниже в 1.5-2 раза). Если метеoстанция нахoдится в гoрoде или в лесу, тo скoрoсть ветра занижена на 2-4 м/с пo сравнению с oткрытым местoм. Скoрoсть ветра над акватoриями крупных рек и oзёр, а также на вершинах хoлмoв на 2-5 м/с выше, чем в oбычных услoвиях.
Атмoсфернoе давление в разных тoчках местнoсти мoжет значительнo oтличаться oт давления на метеoстанции, в зависимoсти oт услoвий рельефа (при пoдъёме на 10 м давление пoнижается примернo на 1 мм рт.ст.).